Location: Nebula Knoll Observatory
(43.6666°N, 71.0000°W)
Time: 09:44:11
(UTC-04:00)

Cosmos 1782 - Pass Details

Date: 28 May 2018
Orbit: 538 x 553 km, 82.5° (Epoch: 17 June)

Event Time Altitude Azimuth Distance (km) Brightness Sun altitude
Rises 04:08:21 0° 12° (NNE) 2,734 7.3 -9.4°
Reaches altitude 10° 04:11:50 10° 44° (NE) 1,830 7.2 -9.0°
Maximum altitude 04:13:27 12° 67° (ENE) 1,693 6.6 -8.7°
Drops below altitude 10° 04:15:04 10° 91° (E) 1,820 6.2 -8.5°
Sets 04:18:29 0° 123° (ESE) 2,702 6.6 -8.0°
